Regional Weather Roundup
Issued by NWS

Home | Current Version | Previous Version | Text Only | Print | Product List | Glossary Off
Versions: 1 2 3 4 5 6 7 8 9 10 11 12 13 14 15 16 17 18 19 20 21 22 23 24 25 26 27 28 29 30 31 32 33 34 35 36 37 38 39 40 41 42 43 44 45 46 47 48 49 50

000
ASUS43 KBIS 021010
RWRND

NORTH DAKOTA REGIONAL WEATHER ROUNDUP
NATIONAL WEATHER SERVICE BISMARCK ND
400 AM CST MON MAR 02 2015

NOTE: "FAIR" INDICATES FEW OR NO CLOUDS BELOW 12,000 FEET WITH NO
SIGNIFICANT WEATHER AND/OR OBSTRUCTIONS TO VISIBILITY.


NDZ001>003-009>011-017-021100-
NORTHWEST NORTH DAKOTA

CITY           SKY/WX    TMP DP  RH WIND       PRES   REMARKS
WILLISTON      PTCLDY     8   4  83 CALM      30.12F
MINOT          PTCLDY     8   1  73 CALM      30.20F
MINOT AFB      PTCLDY     8   3  81 S12       30.19F WCI  -8
$$

NDZ018>021-031>035-040>046-021100-
SOUTHWEST NORTH DAKOTA

CITY           SKY/WX    TMP DP  RH WIND       PRES   REMARKS
BISMARCK       CLEAR      4   1  88 E3        30.29F
DICKINSON      CLEAR      6   1  80 SE9       30.10F WCI  -8
GARRISON         N/A      3   0  87 SE3       30.21F
HETTINGER ARPT CLEAR     10   5  80 SE10      30.15F WCI  -4
$$

NDZ004>008-012>016-024-026-027-054-021100-
NORTHEAST NORTH DAKOTA

CITY           SKY/WX    TMP DP  RH WIND       PRES   REMARKS
GRAND FORKS    MOCLDY    -3  -8  79 S6        30.34F WCI -15
GRND FRKS AFB  PTCLDY     1  -4  80 W6        30.34F WCI -10
DEVILS LAKE    PTCLDY     1  -8  66 SW5       30.28F WCI  -8
$$

NDZ022-023-025-028>030-036>039-047>053-021100-
SOUTHEAST NORTH DAKOTA

CITY           SKY/WX    TMP DP  RH WIND       PRES   REMARKS
FARGO          PTCLDY     2  -3  80 SW6       30.39F WCI  -9
JAMESTOWN      PTCLDY     4  -1  80 CALM      30.31F
$$



USA.gov is the U.S. government's official web portal to all federal, state and local government web resources and services.